[[{"header":{"parameterUnit":"m.s-1","parameterCategory":1,"la1":30.2991,"la2":30.254,"lo1":-89.0895,"lo2":-89.0444,"dy":0.0017,"dx":0.0017,"nx":28,"ny":28,"refTime":"2024-03-14T03:00:00:Z","depth":0,"parameterNumber":2,"parameterNumberName":"U-component_of_WINDS"},"data":[0,0,0,0,0,0,0,0,0,0,0,0,0,0,0,0,0,0,0,0,0,0,0,0,0,0,0,0,0,0,0,0,0,0,0,0,0,0,0,0,0,0,0,0,0,0,0,0,0,0,0,0,0,0,0,0,0,0,-1.4204,-1.4205,0,-1.4227,-1.4227,-1.4227,-1.4232,-1.4232,-1.4232,-1.4232,-1.4254,-1.4255,-1.4256,0,0,0,0,0,0,0,0,0,0,0,0,0,-1.4167,-1.4168,-1.4204,-1.4205,-1.4205,-1.4227,-1.4227,-1.4227,-1.4232,-1.4232,-1.4232,-1.4232,-1.4254,-1.4255,-1.4256,0,0,0,0,0,0,0,0,0,0,0,0,0,-1.4185,-1.4168,-1.4204,-1.421,-1.4211,-1.4226,-1.4227,-1.4227,-1.4232,-1.4232,-1.4232,-1.4232,-1.4254,-1.4255,-1.4256,-1.4267,0,0,-1.4259,-1.426,0,0,0,0,0,0,0,0,-1.4184,-1.4187,-1.4209,-1.421,-1.4211,-1.4226,-1.4222,-1.4241,-1.4232,-1.4224,-1.4232,-1.4231,-1.4245,-1.4247,-1.4251,-1.4268,-1.4269,-1.4259,-1.426,-1.426,-1.4261,0,0,0,0,0,0,0,-1.4183,-1.4186,-1.4213,-1.4209,-1.421,-1.4212,-1.4214,-1.4225,-1.4236,-1.4225,-1.4225,-1.4228,-1.4245,-1.425,-1.4252,-1.4269,-1.4259,-1.426,-1.4261,-1.4261,-1.4297,-1.4297,0,0,0,0,0,0,-1.4181,-1.4185,-1.4212,-1.4214,-1.4197,-1.4213,-1.4215,-1.4222,-1.4235,-1.4237,-1.4228,-1.4228,-1.4249,-1.4251,-1.4253,-1.4267,-1.426,-1.4261,-1.4262,-1.4297,-1.4297,-1.4298,0,0,0,0,0,0,-1.418,-1.4183,-1.4212,-1.4199,-1.4203,-1.4213,-1.422,-1.4222,-1.4227,-1.4238,-1.424,-1.4231,-1.4248,-1.4251,-1.4264,-1.4268,-1.4262,-1.4263,-1.4297,-1.4297,-1.4297,-1.4296,0,0,0,0,0,0,-1.4179,-1.4183,-1.4187,-1.42,-1.4204,-1.4222,-1.4221,-1.4223,-1.4229,-1.4229,-1.4241,-1.4243,-1.4249,-1.4262,-1.4265,-1.4269,-1.4264,-1.4296,-1.4297,-1.4297,-1.4295,-1.4296,-1.4297,0,0,0,0,0,-1.4178,-1.4186,-1.4187,-1.4191,-1.4209,-1.4222,-1.4225,-1.4231,-1.4229,-1.4234,-1.4241,-1.4243,-1.4267,-1.4263,-1.4266,-1.4271,-1.4296,-1.4297,-1.4297,-1.4295,-1.4296,-1.4297,0,0,0,0,0,0,-1.4173,-1.4187,-1.4189,-1.4202,-1.4211,-1.4223,-1.4229,-1.4231,-1.4241,-1.424,-1.4248,-1.425,-1.4262,-1.4268,-1.4264,-1.4283,-1.4282,-1.4283,-1.4279,-1.428,-1.428,-1.4278,-1.4265,0,0,0,0,0,-1.4174,-1.4183,-1.4195,-1.4205,-1.4209,-1.4218,-1.4224,-1.4228,-1.4238,-1.4241,-1.4249,-1.4258,-1.4268,-1.4274,-1.4284,-1.4297,-1.43,-1.4302,-1.4302,-1.4303,-1.4304,-1.4311,-1.4312,-1.43,-1.43,-1.43,0,0,-1.4175,-1.4184,-1.4189,-1.4204,-1.4212,-1.4221,-1.4221,-1.4231,-1.4238,-1.4243,-1.4255,-1.4261,-1.4272,-1.4285,-1.429,-1.429,-1.4308,-1.4304,-1.4304,-1.4305,-1.4312,-1.4313,-1.4314,-1.43,-1.43,-1.43,0,0,-1.4182,-1.419,-1.4199,-1.4206,-1.4218,-1.4224,-1.4226,-1.4238,-1.4242,-1.4255,-1.4258,-1.4267,-1.4284,-1.4291,-1.4297,-1.4308,-1.431,-1.4311,-1.4314,-1.4321,-1.4322,-1.4323,-1.4326,-1.4328,-1.4312,-1.4312,-1.4312,0,-1.4182,-1.4196,-1.4203,-1.4213,-1.4219,-1.4224,-1.4234,-1.4241,-1.4255,-1.4259,-1.4258,-1.428,-1.4287,-1.4302,-1.4305,-1.4309,-1.4312,-1.4309,-1.4321,-1.4322,-1.4323,-1.4327,-1.4328,-1.4312,-1.4312,-1.4312,-1.4312,0,-1.4196,-1.4205,-1.4211,-1.4225,-1.4232,-1.4241,-1.425,-1.4257,-1.426,-1.4267,-1.4279,-1.4289,-1.4301,-1.4305,-1.4308,-1.432,-1.4319,-1.432,-1.4318,-1.4324,-1.4328,-1.4329,-1.4312,-1.4312,-1.4312,-1.4312,0,0,-1.42,-1.4217,-1.4219,-1.4225,-1.4239,-1.4246,-1.4256,-1.4268,-1.4273,-1.4283,-1.4292,-1.4306,-1.4307,-1.4314,-1.4319,-1.4325,-1.4333,-1.4325,-1.4325,-1.4326,-1.4346,-1.4345,-1.4347,-1.4335,-1.4335,-1.4335,-1.4345,0,-1.4208,-1.4225,-1.4232,-1.4247,-1.4256,-1.4261,-1.427,-1.4279,-1.4285,-1.4294,-1.4302,-1.4312,-1.4312,-1.4316,-1.4323,-1.433,-1.4337,-1.433,-1.4343,-1.4343,-1.4339,-1.4348,-1.4347,-1.4356,-1.4347,-1.4347,-1.4347,0,-1.4219,-1.4229,-1.4244,-1.4257,-1.4261,-1.4269,-1.428,-1.4288,-1.4299,-1.4303,-1.4312,-1.4316,-1.4327,-1.4325,-1.434,-1.4336,-1.4341,-1.4346,-1.4347,-1.4347,-1.4345,-1.4349,-1.4359,-1.436,-1.4349,-1.4349,-1.4349,0,-1.422,-1.4237,-1.4249,-1.4254,-1.4269,-1.4274,-1.4281,-1.4291,-1.4298,-1.4308,-1.4312,-1.4324,-1.433,-1.4339,-1.4347,-1.4345,-1.4361,-1.436,-1.4365,-1.4365,-1.4367,-1.4367,-1.4378,-1.4372,-1.4372,-1.4372,-1.4372,0,-1.4228,-1.4237,-1.4249,-1.4256,-1.4267,-1.4275,-1.4285,-1.4292,-1.4302,-1.431,-1.4316,-1.4324,-1.4334,-1.4343,-1.4349,-1.4361,-1.4364,-1.4368,-1.4369,-1.4367,-1.4366,-1.437,-1.4369,-1.4372,-1.4372,-1.4372,-1.4372,0,-1.4231,-1.4239,-1.4252,-1.4265,-1.4269,-1.4276,-1.4287,-1.4294,-1.4301,-1.4312,-1.4315,-1.4326,-1.4337,-1.4346,-1.4361,-1.4365,-1.4378,-1.4379,-1.4374,-1.4374,-1.4379,-1.4378,-1.4392,-1.4394,-1.4387,-1.4388,-1.4388,0,-1.4235,-1.4242,-1.4256,-1.4262,-1.4268,-1.4278,-1.4285,-1.4294,-1.4301,-1.4314,-1.432,-1.4331,-1.4341,-1.4359,-1.4369,-1.438,-1.4382,-1.4386,-1.4384,-1.4381,-1.4382,-1.4381,-1.4382,-1.4386,-1.4386,-1.4386,-1.4386,0,-1.4241,-1.4245,-1.4255,-1.4266,-1.4274,-1.4284,-1.4293,-1.4298,-1.4308,-1.4316,-1.4328,-1.4336,-1.4351,-1.4363,-1.4375,-1.4382,-1.4386,-1.4387,-1.4389,-1.4386,-1.4383,-1.4384,-1.4374,-1.4387,-1.4387,-1.4387,-1.4387,-1.4387,-1.4244,-1.4251,-1.4262,-1.4273,-1.4281,-1.429,-1.4297,-1.4305,-1.4315,-1.4328,-1.4333,-1.4345,-1.4356,-1.4373,-1.4381,-1.439,-1.4391,-1.4393,-1.4394,-1.4394,-1.4394,-1.4382,-1.4393,-1.4393,-1.4393,-1.4393,-1.4393,0,-1.4251,-1.4258,-1.4268,-1.4281,-1.429,-1.4293,-1.4304,-1.4311,-1.4321,-1.4331,-1.4341,-1.4355,-1.4366,-1.4377,-1.4389,-1.4395,-1.4397,-1.4398,-1.4397,-1.4399,-1.4393,-1.439,-1.4396,-1.4396,-1.4396,-1.4396,-1.4396,-1.4396,-1.4255,-1.4266,-1.4272,-1.4287,-1.4295,-1.4307,-1.4312,-1.4321,-1.4329,-1.4344,-1.4354,-1.436,-1.4371,-1.4384,-1.4395,-1.4398,-1.4402,-1.4402,-1.4406,-1.44,-1.4399,-1.4399,-1.4396,-1.4403,-1.4403,-1.4411,-1.4411,-1.4411]},{"header":{"parameterUnit":"m.s-1","parameterCategory":1,"la1":30.2991,"la2":30.254,"lo1":-89.0895,"lo2":-89.0444,"dy":0.0017,"dx":0.0017,"nx":28,"ny":28,"refTime":"2024-03-14T03:00:00:Z","depth":0,"parameterNumber":3,"parameterNumberName":"V-component_of_WINDS"},"data":[0,0,0,0,0,0,0,0,0,0,0,0,0,0,0,0,0,0,0,0,0,0,0,0,0,0,0,0,0,0,0,0,0,0,0,0,0,0,0,0,0,0,0,0,0,0,0,0,0,0,0,0,0,0,0,0,0,0,2.9886,2.9886,0,2.9949,2.9949,2.995,2.9947,2.9947,2.9946,2.9945,3.0007,3.0009,3.0012,0,0,0,0,0,0,0,0,0,0,0,0,0,2.9762,2.9764,2.9886,2.9886,2.9887,2.9948,2.9949,2.995,2.9948,2.9947,2.9946,2.9945,3.0006,3.0009,3.0012,0,0,0,0,0,0,0,0,0,0,0,0,0,2.9819,2.9765,2.9885,2.9893,2.9895,2.9948,2.9949,2.995,2.9948,2.9947,2.9945,2.9944,3.0005,3.0009,3.0012,3.0062,0,0,3.0024,3.0025,0,0,0,0,0,0,0,0,2.9816,2.9824,2.9891,2.9893,2.9894,2.9939,2.9928,2.9988,2.9948,2.9928,2.9945,2.9943,2.9985,2.999,3.0005,3.0064,3.0067,3.0024,3.0026,3.0028,3.0029,0,0,0,0,0,0,0,2.9812,2.9821,2.991,2.9892,2.9894,2.9893,2.99,2.994,2.9963,2.9929,2.9929,2.9937,2.9986,3.0002,3.0007,3.0068,3.0024,3.0027,3.003,3.0031,3.0172,3.0173,0,0,0,0,0,0,2.9806,2.9818,2.9908,2.9912,2.9851,2.9897,2.9904,2.9926,2.9962,2.9967,2.9938,2.9937,2.9996,3.0002,3.0009,3.007,3.0028,3.0031,3.0033,3.017,3.0172,3.0174,0,0,0,0,0,0,2.9804,2.9814,2.9906,2.9865,2.9877,2.99,2.9925,2.9928,2.9944,2.9969,2.9973,2.995,2.9995,3.0003,3.0049,3.0072,3.0033,3.0036,3.0169,3.0171,3.0173,3.0192,0,0,0,0,0,0,2.98,2.9814,2.9833,2.9865,2.9879,2.9946,2.9926,2.993,2.995,2.9949,2.9981,2.9985,2.9995,3.0043,3.0053,3.0076,3.0039,3.0167,3.017,3.0172,3.0189,3.0194,3.0199,0,0,0,0,0,2.9796,2.9835,2.9834,2.9845,2.9903,2.9947,2.9954,2.9965,2.9952,2.9972,2.9988,2.9984,3.0068,3.0048,3.0058,3.0083,3.0165,3.0169,3.0172,3.0187,3.0193,3.0199,0,0,0,0,0,0,2.9803,2.9839,2.9839,2.9889,2.9915,2.9946,2.9971,2.9971,3.0001,2.9998,3.0009,3.0017,3.0062,3.0077,3.0055,3.0133,3.0115,3.012,3.0122,3.0129,3.0133,3.0129,3.0042,0,0,0,0,0,2.9811,2.9844,2.9873,2.9915,2.9928,2.9948,2.9967,2.9973,3.0,3.0011,3.003,3.0056,3.0088,3.0109,3.014,3.0191,3.0198,3.0213,3.0218,3.0222,3.0227,3.0256,3.0263,3.0185,3.0185,3.0185,0,0,2.9827,2.985,2.987,2.9917,2.9938,2.9972,2.9957,2.9993,3.0018,3.0016,3.0061,3.0076,3.0105,3.0154,3.0176,3.0168,3.025,3.0226,3.0229,3.0232,3.026,3.0268,3.0274,3.0188,3.0187,3.0187,0,0,2.9874,2.9894,2.9932,2.9954,2.9986,2.9999,3.0008,3.0039,3.005,3.0095,3.0095,3.0124,3.0179,3.02,3.0218,3.0274,3.0272,3.0283,3.0309,3.0337,3.0343,3.0349,3.037,3.0377,3.0288,3.0288,3.0288,0,2.9889,2.9941,2.9952,2.9989,3.0009,3.001,3.0049,3.0068,3.0108,3.0123,3.0112,3.0182,3.0202,3.0256,3.027,3.0284,3.0295,3.028,3.0342,3.0347,3.0353,3.0373,3.0381,3.0289,3.0289,3.0289,3.0289,0,2.9959,2.9995,3.0021,3.0062,3.0085,3.0122,3.0139,3.0161,3.0165,3.0179,3.0225,3.0249,3.0285,3.0298,3.0302,3.0354,3.0348,3.0339,3.0321,3.0361,3.038,3.0388,3.0291,3.0291,3.029,3.029,0,0,3.0013,3.0059,3.0069,3.0088,3.0123,3.0151,3.0188,3.0224,3.0244,3.0271,3.0303,3.035,3.0343,3.0364,3.037,3.0394,3.0438,3.0383,3.0384,3.0394,3.0498,3.0505,3.0514,3.0437,3.0438,3.044,3.0496,0,3.0064,3.0132,3.0143,3.0202,3.0236,3.0237,3.0269,3.0295,3.0308,3.0338,3.0353,3.0387,3.0374,3.0387,3.0411,3.0428,3.046,3.0424,3.0467,3.0469,3.0461,3.0524,3.0531,3.0583,3.0503,3.0505,3.0506,0,3.0133,3.0164,3.0227,3.0259,3.0274,3.0303,3.0338,3.0366,3.0395,3.0403,3.0427,3.043,3.0469,3.0448,3.0502,3.0477,3.0495,3.0506,3.0508,3.0514,3.049,3.0532,3.06,3.0608,3.0517,3.0516,3.0516,0,3.0168,3.0225,3.027,3.0286,3.0324,3.0345,3.0362,3.0389,3.0411,3.0441,3.0455,3.0488,3.0507,3.0533,3.0545,3.0529,3.0598,3.0578,3.0607,3.0607,3.0622,3.0621,3.0696,3.0632,3.0632,3.0632,3.0631,0,3.0225,3.0264,3.0287,3.0315,3.0358,3.037,3.0413,3.0429,3.0453,3.0484,3.0486,3.0515,3.0529,3.056,3.0569,3.0613,3.0621,3.0629,3.0631,3.063,3.0629,3.0643,3.064,3.0634,3.0633,3.0633,3.0632,0,3.0272,3.0289,3.0338,3.0371,3.038,3.041,3.0438,3.0465,3.0479,3.0518,3.0528,3.0549,3.0586,3.06,3.0644,3.0651,3.0702,3.07,3.0692,3.0693,3.0722,3.0719,3.0808,3.0821,3.0748,3.0748,3.0749,0,3.0308,3.0338,3.0374,3.0396,3.0413,3.0447,3.047,3.0483,3.0506,3.0541,3.0564,3.0601,3.0631,3.0689,3.0708,3.0742,3.0743,3.0771,3.0748,3.0746,3.0745,3.0743,3.0747,3.0776,3.0777,3.0777,3.0778,0,3.0371,3.0378,3.0411,3.0446,3.0473,3.0502,3.0529,3.0546,3.0563,3.0589,3.0627,3.0651,3.0696,3.0733,3.0768,3.0785,3.0785,3.0785,3.0794,3.0793,3.0788,3.0792,3.0706,3.0783,3.0783,3.0782,3.0782,3.0782,3.0415,3.0442,3.0472,3.0508,3.0531,3.0557,3.0584,3.0602,3.0634,3.0673,3.0678,3.0719,3.0747,3.0795,3.0813,3.0845,3.0837,3.0849,3.0853,3.0856,3.0858,3.0782,3.0851,3.0851,3.0851,3.085,3.085,0,3.0479,3.0498,3.0532,3.0571,3.06,3.0597,3.0628,3.0652,3.0688,3.0715,3.0745,3.0789,3.0824,3.0846,3.0882,3.0904,3.0904,3.0913,3.0912,3.0916,3.0862,3.0852,3.0912,3.0912,3.0912,3.0912,3.0912,3.0912,3.0516,3.0563,3.0573,3.0631,3.0649,3.069,3.0708,3.0732,3.0754,3.0803,3.0833,3.0847,3.0872,3.091,3.0943,3.0948,3.0962,3.0971,3.0976,3.0926,3.092,3.0914,3.0904,3.0973,3.0974,3.1027,3.1028,3.1028]}]]